Weather History for LTAC - September, 2012

Change the Weather History Date:

Monday, September 10, 2012

  Actual Average Record
Temperature  
Mean Temperature 62 °F -  
Max Temperature 73 °F 71 °F 82 °F (1998)
Min Temperature 50 °F 43 °F 41 °F (1996)
Degree Days  
Heating Degree Days 4    
Growing Degree Days 12 (Base 50)    
Moisture  
Dew Point 39 °F    
Average Humidity 41    
Maximum Humidity 67    
Minimum Humidity 18    
Precipitation  
Precipitation 0.00 in - - ()
Sea Level Pressure  
Sea Level Pressure 30.13 in    
Wind  
Wind Speed 11 mph ()    
Max Wind Speed 18 mph    
Max Gust Speed -    
Visibility 7.0 miles    
Events      
Averages and records for this station are not official NWS values.
T = Trace of Precipitation, MM = Missing Value Source: Averaged Metar Reports

Daily Weather History Graph

Daily Weather History Graph

Search for Another Location

Airport or City:

Trip Planner

Search our weather history database for the weather conditions in past years. The results will help you decide how hot, cold, wet, or windy it might be!

Date:

Astronomy

Sep. 10, 2012 Rise Set
Actual Time 6:24 AM EEST 7:04 PM EEST
Civil Twilight 5:56 AM EEST 7:32 PM EEST
Nautical Twilight 5:24 AM EEST 8:04 PM EEST
Astronomical Twilight 4:51 AM EEST 8:37 PM EEST
Moon 12:27 AM EEST (9/10) 3:19 PM EEST (9/10)
Length of Visible Light 13h 35m
Length of Day
12h 40m
Waning Crescent, 33% of the Moon is Illuminated
Sep 10
Waning Crescent
Sep 16
New
Sep 22
First Quarter
Sep 30
Full
Oct 8
Last Quarter

Hourly Weather History & Observations

Time (EEST) Temp. Dew Point Humidity Pressure Visibility Wind Dir Wind Speed Gust Speed Precip Events Conditions
12:20 AM 60.8 °F 41.0 °F 48% 30.09 in - NNE 11.5 mph - N/A   Clear
12:50 AM 59.0 °F 41.0 °F 51% 30.09 in - NE 10.4 mph - N/A   Clear
1:20 AM 59.0 °F 37.4 °F 45% 30.09 in - NE 12.7 mph - N/A   Clear
1:50 AM 59.0 °F 37.4 °F 45% 30.09 in - NE 11.5 mph - N/A   Clear
2:20 AM 57.2 °F 39.2 °F 51% 30.12 in - NE 12.7 mph - N/A   Clear
2:50 AM 57.2 °F 37.4 °F 48% 30.12 in - NE 11.5 mph - N/A   Clear
3:00 AM 57 °F 37 °F 35% 30.00 in 12 mi NE 11.5 mph - -   Partly Cloudy
3:20 AM 57.2 °F 37.4 °F 48% 30.12 in - NE 12.7 mph - N/A   Clear
3:50 AM 57.2 °F 35.6 °F 44% 30.12 in - NE 15.0 mph - N/A   Clear
4:20 AM 55.4 °F 35.6 °F 47% 30.12 in - ENE 11.5 mph - N/A   Clear
4:50 AM 55.4 °F 35.6 °F 47% 30.12 in - NE 13.8 mph - N/A   Clear
5:20 AM 53.6 °F 35.6 °F 51% 30.12 in - NNE 8.1 mph - N/A   Clear
5:50 AM 53.6 °F 35.6 °F 51% 30.12 in - NE 11.5 mph - N/A   Clear
6:20 AM 51.8 °F 35.6 °F 54% 30.15 in - North 8.1 mph - N/A   Clear
6:50 AM 50.0 °F 35.6 °F 58% 30.15 in - North 5.8 mph - N/A   Clear
7:20 AM 53.6 °F 37.4 °F 54% 30.15 in - NE 5.8 mph - N/A   Clear
7:50 AM 55.4 °F 37.4 °F 51% 30.15 in - NNE 6.9 mph - N/A   Clear
8:20 AM 57.2 °F 37.4 °F 48% 30.15 in - NNE 8.1 mph - N/A   Clear
8:50 AM 59.0 °F 39.2 °F 48% 30.15 in 6.2 mi NNE 12.7 mph - N/A   Partly Cloudy
9:00 AM 60 °F 38 °F 33% 30.07 in 12 mi NNE 12.7 mph - -   Scattered Clouds
9:20 AM 60.8 °F 39.2 °F 45% 30.15 in 6.2 mi NNE 15.0 mph - N/A   Partly Cloudy
9:50 AM 64.4 °F 39.2 °F 40% 30.15 in 6.2 mi NE 12.7 mph - N/A   Partly Cloudy
10:20 AM 64.4 °F 37.4 °F 37% 30.18 in 6.2 mi NE 12.7 mph - N/A   Partly Cloudy
10:50 AM 66.2 °F 35.6 °F 32% 30.15 in 6.2 mi NE 15.0 mph - N/A   Partly Cloudy
11:20 AM 66.2 °F 33.8 °F 30% 30.15 in 6.2 mi NNE 16.1 mph - N/A   Partly Cloudy
11:50 AM 68.0 °F 32.0 °F 26% 30.15 in 6.2 mi NE 13.8 mph - N/A   Partly Cloudy
12:20 PM 68.0 °F 30.2 °F 24% 30.15 in 6.2 mi NE 13.8 mph - N/A   Partly Cloudy
12:50 PM 69.8 °F 35.6 °F 28% 30.15 in 6.2 mi NNE 13.8 mph - N/A   Partly Cloudy
1:20 PM 69.8 °F 35.6 °F 28% 30.15 in 6.2 mi NE 17.3 mph - N/A   Partly Cloudy
1:50 PM 71.6 °F 35.6 °F 27% 30.15 in 6.2 mi NNE 15.0 mph - N/A   Partly Cloudy
2:20 PM 71.6 °F 35.6 °F 27% 30.12 in 6.2 mi NNE 15.0 mph - N/A   Partly Cloudy
2:50 PM 71.6 °F 37.4 °F 29% 30.12 in 6.2 mi NE 15.0 mph - N/A   Partly Cloudy
3:00 PM 71 °F 37 °F 18% 30.03 in 12 mi NE 15.0 mph - -   Scattered Clouds
3:20 PM 71.6 °F 37.4 °F 29% 30.12 in 6.2 mi ENE 18.4 mph - N/A   Scattered Clouds
3:50 PM 71.6 °F 37.4 °F 29% 30.12 in 6.2 mi ENE 13.8 mph - N/A   Scattered Clouds
4:20 PM 71.6 °F 37.4 °F 29% 30.12 in 6.2 mi ENE 13.8 mph - N/A   Scattered Clouds
4:50 PM 71.6 °F 39.2 °F 31% 30.12 in 6.2 mi ENE 13.8 mph - N/A   Scattered Clouds
5:20 PM 71.6 °F 39.2 °F 31% 30.09 in 6.2 mi NE 16.1 mph - N/A   Scattered Clouds
5:50 PM 71.6 °F 39.2 °F 31% 30.12 in 6.2 mi ENE 12.7 mph - N/A   Scattered Clouds
6:20 PM 69.8 °F 39.2 °F 33% 30.12 in 6.2 mi ENE 13.8 mph - N/A   Scattered Clouds
6:50 PM 69.8 °F 37.4 °F 31% 30.12 in 6.2 mi ENE 16.1 mph - N/A   Scattered Clouds
7:20 PM 68.0 °F 39.2 °F 35% 30.12 in 6.2 mi East 10.4 mph - N/A   Scattered Clouds
7:50 PM 66.2 °F 41.0 °F 40% 30.12 in 6.2 mi East 9.2 mph - N/A   Partly Cloudy
8:20 PM 66.2 °F 42.8 °F 43% 30.12 in 6.2 mi ENE 13.8 mph - N/A   Partly Cloudy
8:50 PM 64.4 °F 42.8 °F 45% 30.15 in - East 13.8 mph - N/A   Clear
9:00 PM 64 °F 43 °F 34% 30.06 in 12 mi East 13.8 mph - -  
9:20 PM 64.4 °F 44.6 °F 49% 30.15 in - ENE 12.7 mph - N/A   Clear
9:50 PM 62.6 °F 46.4 °F 55% 30.15 in - ENE 17.3 mph - N/A   Clear
10:20 PM 60.8 °F 46.4 °F 59% 30.18 in - ENE 16.1 mph - N/A   Clear
10:50 PM 60.8 °F 48.2 °F 63% 30.18 in - NE 13.8 mph - N/A   Clear
11:20 PM 59.0 °F 48.2 °F 67% 30.18 in - NE 13.8 mph - N/A   Clear
11:50 PM 59.0 °F 48.2 °F 67% 30.18 in - ENE 13.8 mph - N/A   Clear